Theta_e
318 319 318 318 319 320 320 320 320 321 321 321 321 322 323 322 322 320 313 321 324 354 354 344 337 343 341 335 333 329 319 314 315 319 321 331 329 336 339 334 335 338 337 339 347
318 318 318 318 318 319 319 319 320 320 320 320 320 321 322 323 317 314 329 338 345 355 337 328 326 329 324 319 328 326 319 316 321 324 325 330 332 334 333 331 331 335 341 345 347
317 317 317 317 318 318 318 319 319 319 319 319 320 320 322 323 312 312 343 342 349 345 327 322 319 316 313 318 323 324 319 322 323 325 330 330 331 335 331 327 332 334 339 343 344
316 316 316 316 317 317 318 318 318 318 318 319 319 320 322 319 304 313 350 345 348 336 320 318 315 312 311 311 319 319 323 324 324 327 329 328 333 330 331 328 336 340 342 343 342
315 315 315 316 316 316 317 317 317 317 317 318 319 320 317 309 310 317 346 352 341 326 316 315 312 312 310 313 314 314 316 322 326 327 330 332 329 329 330 334 339 342 342 341 342
315 315 315 315 316 316 317 317 317 316 317 319 320 320 312 303 316 323 336 336 333 322 316 316 314 316 314 315 314 315 317 321 326 325 329 327 328 330 331 338 338 340 340 341 342
314 315 315 315 315 315 316 316 315 316 317 321 321 319 311 309 317 318 323 325 328 320 314 317 317 317 317 313 315 324 320 324 324 325 325 329 324 325 334 338 336 337 339 341 343
314 314 314 314 315 315 315 314 314 316 320 322 322 320 309 317 320 320 322 317 323 319 319 319 317 314 313 317 322 319 321 315 322 324 326 325 316 327 335 336 334 335 337 339 342
314 314 314 315 315 314 313 313 316 321 322 323 319 314 311 326 319 322 323 315 318 318 317 316 317 312 312 315 316 317 312 314 318 325 325 323 318 328 335 335 333 334 336 338 341
314 314 314 314 313 312 311 313 314 320 322 323 322 313 317 314 317 320 321 315 313 313 312 311 310 308 309 313 305 311 313 315 316 321 324 321 321 328 333 333 333 335 337 338 340
313 313 313 312 311 310 310 308 309 308 313 312 312 313 313 317 318 318 319 313 312 311 306 308 304 302 307 314 316 316 315 315 319 323 321 320 321 326 331 332 331 334 337 338 339
313 312 312 311 310 310 306 301 303 302 297 303 304 307 312 315 309 316 319 313 308 304 304 304 301 307 310 311 314 316 315 315 319 322 322 320 320 325 329 330 332 333 335 337 339
312 312 311 310 309 306 301 303 305 305 297 302 304 305 308 310 307 309 316 313 310 305 303 302 304 307 307 308 308 314 314 315 315 319 322 321 317 321 328 331 332 333 335 336 337
312 311 310 307 303 302 303 306 306 304 299 303 305 309 312 311 306 314 316 315 309 307 303 303 306 305 306 307 310 307 315 318 316 315 309 320 307 318 324 326 329 331 332 333 335
311 310 309 307 303 301 303 306 306 305 290 304 307 315 313 309 308 310 318 314 308 307 306 303 302 304 304 307 311 310 313 315 317 315 313 314 310 314 322 321 326 330 332 334 335
310 309 308 305 303 305 306 305 306 298 290 301 309 307 306 308 308 311 311 315 314 308 305 307 307 307 307 310 312 311 310 310 313 313 304 311 311 309 317 321 325 329 332 333 335
308 307 306 306 300 305 305 302 296 291 301 300 302 304 304 304 305 307 306 306 305 302 302 305 305 307 308 306 312 310 308 301 300 301 300 309 310 312 319 324 326 327 330 333 335
306 306 306 307 308 308 302 296 289 295 298 302 303 303 300 303 304 305 305 303 308 308 304 300 297 304 308 307 306 307 307 302 296 297 300 306 304 311 322 324 327 330 331 333 334
306 304 302 304 307 306 296 288 292 296 302 300 302 299 300 302 303 304 304 304 306 309 302 300 300 304 306 309 310 306 303 311 303 300 301 305 310 314 319 320 322 325 329 331 334
302 299 298 307 308 300 292 289 293 300 303 302 298 301 298 299 300 301 302 306 306 308 312 304 298 304 306 309 308 307 310 301 302 298 295 300 303 305 315 318 323 323 326 330 334
300 293 301 308 302 296 288 290 293 298 302 299 299 299 300 299 300 299 300 305 306 306 310 307 304 301 304 303 303 304 303 304 306 304 299 297 301 315 317 321 322 324 326 329 333
297 287 303 306 296 294 291 293 295 297 299 300 299 301 300 300 299 299 299 304 308 307 303 306 304 300 302 306 307 307 305 306 302 301 302 302 303 314 317 320 322 324 326 328 332
293 294 303 302 291 294 297 297 299 299 298 298 297 300 301 298 295 298 301 306 308 307 308 305 301 297 299 303 305 303 305 306 306 306 305 299 302 317 316 317 320 321 326 328 331
295 289 298 298 296 293 293 294 296 302 301 303 301 301 301 300 302 300 301 306 309 308 319 311 305 303 298 302 305 301 302 304 304 301 302 302 306 312 315 318 322 323 326 328 329
296 293 296 293 295 295 294 293 293 294 301 302 302 302 301 298 300 300 303 304 306 312 313 311 304 304 305 307 305 304 302 303 302 305 302 305 306 313 317 320 323 328 329 327 328
293 293 294 293 295 294 293 293 294 296 297 298 299 302 303 300 302 300 303 304 305 311 311 307 303 303 301 304 305 302 304 304 304 304 305 306 308 317 321 321 321 324 326 327 328
298 299 294 291 292 292 293 293 294 296 299 301 299 298 298 301 304 306 308 308 310 310 312 311 304 302 300 304 302 299 303 304 305 307 307 304 311 319 316 318 322 327 327 328 331
Wind_Speed
20 20 20 19 19 19 19 19 19 20 19 20 20 19 18 19 17 5 8 11 10 18 13 10 5 9 7 4 5 4 2 5 7 9 6 12 8 6 5 12 5 6 7 11 19
21 21 21 21 20 20 19 19 18 20 20 19 18 18 16 15 6 10 10 7 6 20 13 14 11 10 4 4 6 5 3 6 6 8 11 15 11 11 5 12 5 5 10 20 20
22 22 21 21 21 21 21 20 19 18 20 19 18 16 14 11 6 3 4 7 7 11 8 9 6 7 5 4 6 4 5 4 3 8 13 17 12 9 7 13 10 12 18 22 19
23 23 23 22 22 22 21 21 22 20 18 19 18 15 13 3 7 3 4 12 15 14 10 9 9 9 7 8 5 7 6 5 6 10 16 17 15 10 12 5 10 14 22 21 19
23 23 23 24 24 23 23 22 21 22 19 18 16 11 6 2 12 2 4 3 10 14 17 13 15 9 11 7 6 6 6 7 7 14 13 16 15 10 12 3 11 19 22 22 19
23 23 23 24 24 25 24 22 22 22 21 18 12 6 4 10 3 4 6 8 7 16 17 11 12 7 7 5 8 2 1 3 9 13 12 16 10 9 9 10 15 21 23 20 19
24 23 23 23 25 26 27 25 25 23 21 14 7 6 4 18 6 2 4 3 10 15 20 14 5 9 6 6 5 8 6 8 10 13 8 15 8 14 11 14 16 19 20 19 19
25 25 26 26 26 27 27 26 27 22 12 2 10 4 9 2 1 6 7 4 8 4 13 7 3 3 3 4 5 4 5 7 8 13 9 15 13 12 16 17 18 20 18 18 18
23 25 26 27 27 27 28 29 20 2 6 11 6 4 9 3 3 0 7 6 7 3 2 4 4 2 5 8 6 4 8 9 10 11 10 13 5 12 18 17 18 19 19 17 17
22 22 23 26 28 29 31 20 4 3 5 5 4 4 6 3 1 1 4 10 5 8 6 5 4 7 5 11 14 12 7 9 9 13 11 13 5 9 15 18 18 18 18 18 19
24 25 25 26 26 27 16 2 3 4 4 7 3 6 4 3 3 4 5 6 6 6 9 5 9 16 17 15 8 14 14 16 7 11 11 12 12 6 14 16 17 17 18 19 20
24 25 26 29 27 25 5 3 5 3 12 13 21 17 16 6 6 10 6 7 6 9 7 6 15 14 14 13 9 14 17 14 8 11 12 10 13 8 15 20 19 19 19 19 19
25 25 24 30 32 2 6 4 5 3 6 8 6 6 5 15 12 14 15 9 9 11 12 12 7 10 12 12 12 13 18 15 13 10 4 8 14 12 13 17 18 19 18 19 20
24 25 23 31 3 7 3 2 8 3 5 6 4 4 6 7 8 16 17 9 5 15 11 10 7 17 14 17 14 17 13 15 14 13 13 12 12 12 16 18 21 21 21 21 21
24 24 21 16 10 5 2 7 6 3 6 2 4 3 4 7 4 7 13 7 13 9 7 9 11 12 20 19 13 9 11 16 17 18 7 10 8 10 10 17 23 25 25 24 23
25 25 21 2 4 9 11 9 3 4 10 3 3 4 3 7 2 5 11 4 7 10 4 14 3 13 14 14 17 10 11 6 4 9 9 16 14 10 10 16 24 23 25 25 24
28 26 18 5 5 1 7 4 5 8 1 4 4 3 7 3 6 8 15 15 12 15 14 12 12 7 8 15 12 12 13 7 9 8 9 9 12 15 11 19 22 20 25 27 24
32 28 3 7 5 8 3 4 11 5 11 1 2 4 4 2 5 9 14 18 13 16 10 15 15 16 14 15 12 18 21 10 16 12 11 5 12 9 20 21 14 14 13 20 24
28 5 4 3 9 3 5 11 9 9 4 4 6 9 5 2 4 9 11 17 20 20 14 13 16 4 11 9 17 11 14 15 9 2 8 7 6 11 14 13 11 17 15 20 23
9 6 4 3 8 5 6 15 9 7 4 5 8 5 4 3 3 3 8 7 12 17 15 9 5 15 12 11 8 13 14 11 8 18 17 8 5 6 6 11 15 12 19 22 22
3 6 5 1 4 4 7 8 11 11 7 8 8 8 6 3 4 3 2 2 7 16 17 12 12 5 9 15 21 9 9 3 7 8 15 15 13 8 13 13 12 15 19 19 21
5 4 4 2 3 3 5 5 3 6 12 10 5 9 10 8 8 5 7 7 4 11 13 13 10 13 18 3 10 20 19 18 12 12 5 10 13 6 14 14 11 14 11 13 18
6 6 1 3 5 5 5 5 6 8 8 10 15 13 11 10 7 11 12 11 10 2 8 10 6 8 9 12 14 9 18 20 17 11 17 15 11 4 6 10 15 15 12 9 14
4 5 2 3 1 4 4 6 5 5 9 5 7 7 7 8 9 5 6 6 7 11 8 9 8 10 15 19 16 16 15 16 20 16 14 15 17 10 11 13 14 15 15 11 12
3 3 2 4 2 8 3 5 10 7 2 4 7 13 11 11 15 16 14 17 16 10 4 9 10 17 24 23 24 24 22 22 18 22 20 18 20 16 15 17 18 16 10 9 13
4 3 4 6 10 8 4 4 7 5 3 7 8 11 11 11 14 10 17 16 12 3 4 5 3 3 19 22 22 27 26 24 25 26 20 22 13 11 13 11 12 14 13 14 16
1 3 2 6 5 5 4 3 3 10 7 12 10 10 11 10 7 11 13 14 9 4 5 4 0 2 9 14 17 21 25 24 19 21 21 21 15 10 12 15 14 14 15 16 16
Wind_Direction
355 353 351 349 346 343 340 336 332 329 328 326 328 332 332 333 321 156 251 219 182 167 132 150 165 148 178 208 183 167 189 183 178 171 141 151 158 148 123 144 183 170 155 145 152
352 350 348 345 343 339 335 332 330 327 324 324 322 325 327 330 308 274 265 259 158 156 145 162 170 161 185 200 179 212 227 196 191 177 158 164 170 149 155 164 163 121 125 140 154
349 347 345 342 338 335 331 328 325 324 321 319 317 320 320 320 289 245 336 182 142 196 170 179 170 175 209 192 179 172 248 191 192 171 158 157 168 161 154 189 188 169 155 155 162
347 345 341 338 335 330 326 324 321 321 318 313 311 312 311 264 287 159 136 180 185 193 160 175 167 179 208 203 179 230 222 206 146 166 161 167 156 177 181 185 177 166 161 162 170
345 343 340 336 332 328 323 319 316 315 314 307 303 303 283 221 250 305 82 151 175 187 194 183 177 180 196 196 173 222 250 216 180 168 174 156 169 173 200 214 162 154 164 170 179
344 341 338 334 331 325 321 317 314 313 309 303 287 268 226 260 188 98 109 133 160 189 187 190 196 194 194 194 199 150 3 143 170 159 157 163 162 168 174 144 152 161 170 174 183
341 339 335 333 330 323 318 316 314 309 304 294 233 209 228 248 146 226 234 230 170 191 174 196 193 197 160 166 159 137 104 101 135 153 149 144 154 212 159 158 159 166 175 180 189
339 337 335 332 329 322 315 315 313 305 296 198 165 203 249 214 173 257 206 187 177 223 197 163 173 123 225 119 98 125 153 170 167 174 156 185 208 191 169 165 170 174 180 187 192
338 336 333 330 328 322 316 315 314 340 117 139 161 229 260 297 238 253 181 174 140 217 214 136 181 190 163 173 144 190 201 202 172 197 161 200 212 185 176 181 180 183 185 191 195
336 334 332 329 327 324 321 312 250 108 149 206 255 256 241 177 181 264 172 159 139 145 154 167 158 192 170 193 200 184 199 205 179 179 190 198 189 162 187 190 190 192 193 196 200
335 334 332 329 327 323 329 329 242 175 207 238 231 259 277 251 272 143 142 173 119 150 177 183 199 199 190 196 209 196 206 195 175 164 180 220 247 203 192 207 201 201 202 203 210
333 333 333 329 327 323 286 13 58 354 299 245 249 260 260 299 261 208 166 185 180 176 140 174 218 201 200 201 181 196 214 202 156 160 191 200 236 232 204 214 211 205 206 210 213
332 332 335 329 322 351 321 134 348 307 268 288 223 234 227 194 224 232 177 168 186 173 183 208 207 188 197 199 189 201 204 188 187 161 101 184 236 229 223 218 221 223 219 216 217
331 329 336 335 293 337 295 134 336 236 280 269 236 236 165 168 226 208 192 161 174 196 166 218 207 190 199 210 198 210 212 202 172 172 221 201 259 220 219 214 220 225 219 219 216
327 324 334 334 293 288 22 326 321 220 293 140 170 115 138 204 335 181 183 173 181 166 184 185 185 189 202 207 201 217 175 191 190 204 197 206 245 255 198 219 221 222 222 221 216
323 320 328 317 252 256 303 314 197 212 245 265 178 187 176 219 245 119 174 173 177 175 198 214 187 203 198 204 195 143 117 86 130 187 222 212 216 234 196 218 228 218 220 219 216
320 316 306 252 233 214 315 258 198 221 345 203 182 165 309 208 215 180 178 182 169 184 199 205 216 226 193 193 196 198 170 173 194 198 225 226 216 243 230 228 229 222 213 214 213
320 314 278 217 240 261 275 189 224 210 216 312 219 260 255 175 217 204 179 187 197 182 181 202 217 208 197 210 183 193 199 206 207 209 217 164 218 236 232 248 244 245 228 214 213
320 322 282 241 214 211 213 215 211 196 204 225 262 267 234 224 227 202 204 205 193 192 196 197 224 193 215 192 186 177 216 224 230 56 228 189 239 271 253 246 234 228 212 212 211
320 319 273 352 154 167 212 232 220 214 197 200 221 215 202 185 237 221 195 190 191 196 196 186 215 211 189 201 186 204 171 192 218 222 233 204 232 228 228 243 236 217 214 221 210
311 311 23 108 171 210 223 231 232 240 218 210 211 232 227 199 235 255 251 239 211 192 206 183 215 172 204 207 209 181 191 207 239 235 231 235 230 212 232 243 240 234 226 222 208
333 293 83 185 229 229 230 204 231 235 222 233 234 225 225 231 251 252 240 249 207 147 172 204 210 228 227 178 237 230 217 211 220 195 229 255 223 187 226 245 247 245 239 230 211
310 281 325 214 248 231 284 276 264 240 219 195 219 219 216 229 245 233 235 244 226 234 180 166 197 201 228 236 218 227 228 225 230 246 213 228 221 196 236 248 248 257 256 220 207
297 305 254 217 273 293 333 279 261 265 251 228 223 194 195 217 220 248 219 249 232 228 226 176 192 221 231 233 229 224 225 219 220 226 221 227 237 221 240 239 251 238 249 229 207
232 277 356 306 193 326 280 297 288 289 274 246 207 224 213 230 235 233 247 267 275 273 249 195 213 220 233 239 211 215 224 220 218 233 228 227 220 218 225 232 233 229 244 215 202
294 323 341 290 294 285 242 237 261 292 291 264 232 230 240 238 247 267 226 233 253 188 220 154 217 230 246 234 223 220 219 224 221 226 235 245 222 218 232 238 241 231 220 208 205
220 257 266 273 287 287 263 316 279 340 263 257 303 302 282 271 288 285 272 274 270 292 210 179 184 20 290 260 231 236 226 219 219 229 212 222 224 214 224 225 231 233 217 217 213